Regional Weather Roundup
Issued by NWS

Home | Current Version | Previous Version | Text Only | Print | Product List | Glossary On
Versions: 1 2 3 4 5 6 7 8 9 10 11 12 13 14 15 16 17 18 19 20 21 22 23 24 25 26 27 28 29 30 31 32 33 34 35 36 37 38 39 40 41 42 43 44 45 46 47 48 49 50
000
ASUS43 KLMK 242310
RWRKY
KENTUCKY REGIONAL WEATHER ROUNDUP
NATIONAL WEATHER SERVICE LOUISVILLE KY
700 PM EDT MON JUL 24 2017

NOTE "FAIR" INDICATES FEW OR NO CLOUDS BELOW 12,000 FEET
WITH NO SIGNIFICANT WEATHER AND/OR OBSTRUCTIONS TO VISIBILITY.

KYZ001>023-026-027-061>063-070>075-250000-
WESTERN AND SOUTH CENTRAL KENTUCKY

CITY           SKY/WX    TMP DP  RH WIND       PRES   REMARKS
PADUCAH        LGT RAIN  85  74  69 N7        29.91R HX  92
HENDERSON      FAIR      87  70  56 N8        29.93S HX  92
OWENSBORO      FAIR      89  70  53 N8        29.92S HX  94
HOPKINSVILLE   FAIR      89  74  61 SW6       29.93S HX  97
BOWLING GREEN  FAIR      89  71  55 SW7       29.94R HX  95
GLASGOW        FAIR      87  72  61 SW3       29.96R HX  93
$$

KYZ024-025-028>034-038-045-046-053-250000-
NORTH CENTRAL KENTUCKY

CITY           SKY/WX    TMP DP  RH WIND       PRES   REMARKS
LOUISVILLE/SDF PTSUNNY   88  67  49 NE15      29.94R HX  91
LOUISVILLE/LOU FAIR      87  68  52 NE10G16   29.95R HX  90
FORT KNOX      PTSUNNY   85  73  68 CALM      29.94S HX  91
$$

KYZ035>037-039>044-047>052-055>060-089>105-250000-
NORTHEAST KENTUCKY

CITY           SKY/WX    TMP DP  RH WIND       PRES   REMARKS
LEXINGTON      PTSUNNY   81  71  71 CALM      29.97R
COVINGTON      FAIR      82  68  62 N10       29.97R
FRANKFORT      FAIR      87  64  46 N7        29.95R
$$

KYZ054-064>069-076>088-106>120-250000-
SOUTHEAST KENTUCKY

CITY           SKY/WX    TMP DP  RH WIND       PRES   REMARKS
JACKSON        CLOUDY    73  70  90 CALM      29.99R FOG
LONDON         FAIR      87  66  49 W10       29.97S
SOMERSET       FAIR      84  66  54 W9        29.98S
MIDDLESBORO    FAIR      87  68  52 CALM      29.98F HX  90
MONTICELLO     NOT AVBL
$$





USA.gov is the U.S. government's official web portal to all federal, state and local government web resources and services.